Location: Newark
(37.3394°N, 6.0261°W)
Time: 22:42:54
(UTC+00:00)

Envisat - Visible Passes

Search period start: 19 March 2019 00:00
Search period end: 29 March 2019 00:00
Orbit: 764 x 766 km, 98.2° (Epoch: 19 March)

Date Brightness Start Highest point End Pass type
(mag) Time Alt. Az. Time Alt. Az. Time Alt. Az.
19 Mar 6.0 20:31:19 10° WSW 20:33:29 13° W 20:35:39 10° WNW visible
20 Mar 5.0 19:52:01 10° SSW 19:56:25 30° W 20:00:51 10° NW visible
21 Mar 3.4 19:14:30 10° S 19:19:33 70° WSW 19:24:38 10° NNW visible
22 Mar 5.8 20:18:59 10° SW 20:22:09 17° W 20:25:20 10° NW visible
23 Mar 4.5 19:40:27 10° SSW 19:45:09 38° W 19:49:53 10° NNW visible
24 Mar 3.1 19:03:16 10° SSE 19:08:21 89° W 19:13:27 10° NNW visible
25 Mar 5.6 20:07:02 10° SW 20:10:50 21° W 20:14:40 10° NW visible
26 Mar 4.0 19:29:00 10° S 19:33:54 49° W 19:38:50 10° NNW visible
27 Mar 6.1 20:35:05 10° WSW 20:36:37 11° W 20:38:11 10° WNW visible
28 Mar 5.2 19:55:17 10° SSW 19:59:33 27° W 20:03:50 10° NW visible
